Date,TemperatureHighF,TemperatureAvgF,TemperatureLowF,DewpointHighF,DewpointAvgF,DewpointLowF,HumidityHigh,HumidityAvg,HumidityLow,PressureMaxIn,PressureMinIn,WindSpeedMaxMPH,WindSpeedAvgMPH,GustSpeedMaxMPH,PrecipitationSumIn
2013-1-1,37.3,33.0,29.9,27.4,24.7,22.8,79,71,64,30.10,30.00,0,0,0,0.00
2013-1-2,37.8,34.1,32.6,26.3,24.0,22.8,69,66,61,30.00,29.87,0,0,0,0.00
2013-1-3,36.9,34.4,32.0,29.1,24.0,22.0,77,65,60,29.90,29.80,0,0,0,0.00
2013-1-4,41.6,37.1,34.9,35.9,31.6,27.1,88,81,72,30.00,29.85,0,0,0,0.00
2013-1-5,36.5,35.3,34.0,31.9,28.8,26.5,85,77,73,29.88,29.82,0,0,0,0.00
2013-1-6,42.5,38.7,34.6,40.3,35.8,31.1,92,89,84,29.90,29.72,0,0,0,0.00
2013-1-7,50.4,46.9,42.5,48.1,44.7,40.3,94,92,88,29.87,29.64,0,0,0,0.00
2013-1-8,52.6,49.4,45.4,49.1,46.4,42.9,94,90,85,29.86,29.57,0,0,0,0.00
2013-1-9,50.0,42.8,36.0,45.8,39.6,33.6,92,88,82,29.64,29.37,0,0,0,0.00
2013-1-10,37.8,35.9,33.8,35.5,33.7,31.7,93,92,90,29.76,29.64,0,0,0,0.00
2013-1-11,36.0,32.9,31.0,32.9,30.4,28.2,93,90,84,29.96,29.75,0,0,0,0.00
2013-1-12,34.0,30.5,28.6,31.1,27.9,26.1,91,90,87,30.06,29.94,0,0,0,0.00
2013-1-13,33.1,30.5,29.2,28.5,27.3,26.4,91,87,82,30.15,30.04,0,0,0,0.00
2013-1-14,32.9,31.1,29.2,30.9,28.1,25.5,92,88,86,30.21,30.13,0,0,0,0.00
2013-1-15,36.2,34.4,32.8,34.0,32.3,30.7,94,92,91,30.30,30.21,0,0,0,0.00
2013-1-16,35.6,34.4,33.7,33.5,32.3,31.5,93,92,91,30.30,30.13,0,0,0,0.00
2013-1-17,41.4,35.1,31.0,35.7,31.4,28.3,93,86,79,30.13,29.96,0,0,0,0.00
2013-1-18,38.7,31.9,28.1,33.9,28.3,24.8,90,86,81,29.97,29.91,0,0,0,0.00
2013-1-19,38.5,31.0,27.5,34.7,28.3,24.9,92,90,86,30.00,29.92,0,0,0,0.00
2013-1-20,38.3,32.1,27.9,31.9,27.8,25.4,91,84,74,30.00,29.89,0,0,0,0.00
2013-1-21,38.7,31.4,25.4,32.0,26.6,21.9,88,82,75,29.93,29.81,0,0,0,0.00
2013-1-22,38.9,32.9,29.0,30.1,25.8,23.9,82,75,64,29.82,29.60,0,0,0,0.00
2013-1-23,34.7,33.8,32.8,32.4,28.0,24.4,92,80,69,29.86,29.55,0,0,0,0.00
2013-1-24,41.9,37.8,34.6,39.5,35.8,32.4,94,92,91,29.89,29.76,0,0,0,0.00
2013-1-25,50.0,45.4,40.7,48.4,43.8,39.1,95,94,93,29.79,29.62,0,0,0,0.00
2013-1-26,44.1,41.5,38.7,41.4,39.5,36.5,94,93,89,29.75,29.60,0,0,0,0.00
2013-1-27,41.4,39.7,38.5,39.5,37.8,36.4,94,93,92,29.81,29.71,0,0,0,0.00
2013-1-28,42.7,40.9,39.1,41.3,39.5,37.4,95,95,94,29.86,29.74,0,0,0,0.00
2013-1-29,45.7,43.9,42.1,44.4,42.5,40.8,95,95,94,30.12,29.86,0,0,0,0.00
2013-1-30,48.2,45.3,42.5,46.2,43.7,41.1,95,94,92,30.10,30.05,0,0,0,0.00
2013-1-31,50.8,47.4,44.3,47.6,45.2,42.8,95,92,88,30.10,29.98,0,0,0,0.00
2013-2-1,50.4,47.1,45.0,46.2,44.3,41.0,94,90,85,30.01,29.91,0,0,0,0.00
2013-2-2,52.4,45.5,40.9,45.2,40.5,37.3,87,83,75,29.95,29.91,0,0,0,0.00
2013-2-3,46.4,42.8,39.2,43.5,40.4,36.6,93,91,87,29.99,29.89,0,0,0,0.00
2013-2-4,50.2,45.7,42.1,44.3,42.0,39.9,92,87,78,29.89,29.60,0,0,0,0.00
2013-2-5,50.0,45.6,43.6,45.2,42.1,40.2,91,87,78,29.70,29.57,0,0,0,0.00
2013-2-6,49.5,45.6,42.5,43.1,41.4,38.5,90,85,75,29.74,29.51,0,0,0,0.00
2013-2-7,48.6,42.2,37.1,41.9,38.0,34.1,90,85,71,29.80,29.56,0,0,0,0.00
2013-2-8,43.0,38.0,34.6,38.5,34.7,31.9,92,88,78,29.93,29.80,0,0,0,0.00
2013-2-9,42.3,39.5,34.9,40.4,37.3,32.2,94,92,87,29.94,29.89,0,0,0,0.00
2013-2-10,44.5,42.2,39.8,41.1,39.2,37.9,94,89,82,29.99,29.94,0,0,0,0.00
2013-2-11,44.5,42.7,41.0,41.2,38.9,36.7,90,86,83,30.03,29.97,0,0,0,0.00
2013-2-12,53.5,48.1,44.1,47.5,44.2,41.4,92,86,78,30.11,30.03,0,0,0,0.00
2013-2-13,49.3,47.7,45.7,45.4,43.6,40.9,90,86,80,30.15,30.06,0,0,0,0.00
2013-2-14,49.9,45.1,40.9,44.2,41.0,38.2,90,85,80,30.20,30.15,0,0,0,0.00
2013-2-15,57.2,47.8,41.8,47.7,42.9,39.0,92,83,69,30.15,29.85,0,0,0,0.00
2013-2-16,49.5,45.6,40.1,45.9,41.5,35.9,91,85,79,29.93,29.87,0,0,0,0.00
2013-2-17,45.7,41.8,38.5,39.1,36.5,34.2,89,82,71,29.94,29.76,0,0,0,0.00
2013-2-18,46.1,41.2,36.7,38.1,35.6,33.1,89,81,71,29.75,29.41,0,0,0,0.00
2013-2-19,50.0,43.4,37.8,41.5,37.5,35.1,90,80,65,29.64,29.36,0,0,0,0.00
2013-2-20,47.2,41.1,37.4,40.2,37.1,33.0,93,86,75,29.74,29.64,0,0,0,0.00
2013-2-21,42.8,40.6,37.4,40.5,38.3,35.3,93,92,89,29.82,29.73,0,0,0,0.00
2013-2-22,44.3,42.0,36.9,42.9,39.9,35.0,95,92,88,29.81,29.53,0,0,0,0.00
2013-2-23,44.3,39.3,36.4,42.1,37.0,34.5,95,91,85,30.08,29.71,0,0,0,0.00
2013-2-24,49.3,42.7,36.7,41.3,36.9,34.0,90,81,66,30.07,29.71,0,0,0,0.00
2013-2-25,48.2,42.6,37.8,41.3,37.3,33.8,90,82,63,30.02,29.66,0,0,0,0.00
2013-2-26,47.2,41.6,36.0,39.6,36.2,33.0,90,82,70,30.03,29.89,0,0,0,0.00
2013-2-27,50.9,46.8,42.7,43.6,40.6,37.4,88,79,72,29.95,29.89,0,0,0,0.00
2013-2-28,54.5,51.0,45.7,51.5,48.3,43.3,92,90,89,30.08,29.83,0,0,0,0.00
2013-3-1,58.3,54.6,51.8,51.8,50.1,48.3,90,85,78,30.09,29.97,0,0,0,0.00
2013-3-2,55.4,50.7,42.8,49.1,46.2,38.6,89,84,78,29.97,29.81,0,0,0,0.00
2013-3-3,46.6,41.8,35.8,39.0,36.3,32.2,89,81,72,29.96,29.90,0,0,0,0.00
2013-3-4,53.3,43.4,34.0,36.5,32.5,28.0,89,68,48,29.90,29.57,0,0,0,0.00
2013-3-5,45.5,42.0,40.0,41.3,35.2,28.2,90,77,56,29.56,29.31,0,0,0,0.00
2013-3-6,43.2,41.3,39.8,41.0,39.0,37.0,93,91,89,29.61,29.20,0,0,0,0.00
2013-3-7,51.1,44.0,36.7,42.1,38.1,34.3,92,81,64,29.70,29.61,0,0,0,0.00
2013-3-8,55.1,45.1,37.4,42.9,37.3,34.7,90,75,55,29.85,29.68,0,0,0,0.00
2013-3-9,55.1,45.8,36.4,43.7,37.7,32.1,87,74,57,30.13,29.86,0,0,0,0.00
2013-3-10,48.6,44.2,39.2,42.3,38.4,33.9,85,80,75,30.13,30.05,0,0,0,0.00
2013-3-11,53.5,48.7,44.5,48.3,44.6,40.5,88,86,82,30.07,29.90,0,0,0,0.00
2013-3-12,59.2,53.6,49.5,50.2,47.7,44.4,90,81,68,29.89,29.81,0,0,0,0.00
2013-3-13,61.6,54.2,48.2,51.2,46.9,43.7,85,77,63,29.87,29.75,0,0,0,0.00
2013-3-14,59.4,53.5,49.7,48.6,45.7,39.9,87,76,51,29.86,29.70,0,0,0,0.00
2013-3-15,63.2,55.5,50.0,50.0,47.4,44.8,87,75,56,29.89,29.82,0,0,0,0.00
2013-3-16,50.4,46.6,39.8,45.3,42.4,36.5,90,85,79,29.83,29.67,0,0,0,0.00
2013-3-17,49.3,42.5,36.5,37.7,34.8,33.0,89,75,55,29.94,29.78,0,0,0,0.00
2013-3-18,52.2,44.3,37.4,39.6,36.1,32.8,85,74,60,29.92,29.82,0,0,0,0.00
2013-3-19,51.1,43.8,39.2,42.4,37.8,34.0,91,80,63,29.81,29.34,0,0,0,0.00
2013-3-20,51.1,47.5,40.0,49.4,42.8,33.9,94,84,68,29.80,29.19,0,0,0,0.00
2013-3-21,48.2,41.6,37.8,40.2,35.4,33.5,90,79,63,29.95,29.81,0,0,0,0.00
2013-3-22,45.9,38.8,34.0,36.6,33.9,31.1,89,83,68,30.03,29.93,0,0,0,0.00
2013-3-23,47.3,40.3,34.0,38.7,33.5,29.8,91,78,60,30.03,29.92,0,0,0,0.00
2013-3-24,53.8,44.8,37.6,37.0,33.8,30.1,83,66,51,29.92,29.74,0,0,0,0.00
2013-3-25,60.5,51.1,42.5,37.9,33.6,29.4,64,52,39,29.74,29.57,0,0,0,0.00
2013-3-26,54.0,48.2,42.5,45.5,41.1,35.8,83,76,58,29.68,29.62,0,0,0,0.00
2013-3-27,65.5,53.0,43.0,50.9,44.4,39.7,90,74,54,29.64,29.55,0,0,0,0.00
2013-3-28,66.6,54.5,45.7,54.5,45.9,42.8,89,74,53,29.78,29.65,0,0,0,0.00
2013-3-29,67.3,57.8,49.3,54.7,47.6,44.4,87,70,50,29.86,29.79,0,0,0,0.00
2013-3-30,73.6,59.7,47.0,53.5,47.1,41.9,84,65,46,29.84,29.64,0,0,0,0.00
2013-3-31,76.7,61.6,49.7,57.2,47.8,41.7,76,61,47,29.66,29.56,0,0,0,0.00
2013-4-1,64.1,57.7,51.5,51.8,48.7,45.4,82,72,62,29.82,29.66,0,0,0,0.00
2013-4-2,64.4,56.2,50.8,51.3,47.6,45.2,83,73,59,29.86,29.78,0,0,0,0.00
2013-4-3,64.4,55.1,46.6,53.3,47.8,43.0,88,77,63,29.82,29.57,0,0,0,0.00
2013-4-4,58.1,55.4,53.1,55.2,50.8,48.0,91,85,78,29.57,29.36,0,0,0,0.00
2013-4-5,58.7,53.6,50.2,50.0,48.7,47.6,91,84,68,29.60,29.47,0,0,0,0.00
2013-4-6,56.0,49.9,44.6,48.4,45.3,41.1,93,85,60,29.64,29.40,0,0,0,0.00
2013-4-7,54.4,47.4,42.1,47.4,42.4,37.6,95,83,68,29.61,29.20,0,0,0,0.00
2013-4-8,57.6,47.6,40.0,50.8,41.7,36.5,90,81,65,29.93,29.61,0,0,0,0.00
2013-4-9,58.5,50.3,41.4,47.3,42.9,37.6,89,76,60,30.01,29.89,0,0,0,0.00
2013-4-10,60.1,53.0,46.1,54.3,45.1,37.2,89,75,61,29.98,29.75,0,0,0,0.00
2013-4-11,55.8,48.6,39.8,44.8,40.7,35.8,87,74,64,29.99,29.84,0,0,0,0.00
2013-4-12,54.2,46.3,37.6,44.1,39.6,33.5,88,78,63,29.83,29.51,0,0,0,0.00
2013-4-13,51.5,44.9,37.4,40.4,36.3,33.8,89,72,55,29.73,29.56,0,0,0,0.00
2013-4-14,52.9,44.4,38.9,44.2,38.5,33.8,87,80,67,29.73,29.59,0,0,0,0.00
2013-4-15,56.9,45.9,37.8,44.4,38.7,34.7,90,77,56,29.81,29.59,0,0,0,0.00
2013-4-16,60.1,46.9,38.2,51.1,41.4,36.0,94,82,60,30.03,29.82,0,0,0,0.00
2013-4-17,61.9,48.9,37.1,48.0,39.9,33.7,90,72,53,30.13,30.03,0,0,0,0.00
2013-4-18,60.5,52.6,45.4,46.4,43.0,38.9,80,70,57,30.12,29.97,0,0,0,0.00
2013-4-19,58.3,52.5,48.6,51.9,47.4,44.5,92,83,71,29.96,29.79,0,0,0,0.00
2013-4-20,59.2,52.8,47.9,47.3,44.1,41.5,87,73,57,29.99,29.91,0,0,0,0.00
2013-4-21,54.0,49.9,44.8,47.5,43.6,40.0,85,79,72,29.97,29.90,0,0,0,0.00
2013-4-22,72.4,52.8,41.4,48.8,37.8,31.8,89,61,32,30.08,29.97,0,0,0,0.00
2013-4-23,76.9,55.5,41.6,48.0,34.5,29.1,73,47,26,30.03,29.81,0,0,0,0.00
2013-4-24,83.5,59.0,43.6,48.2,35.4,30.9,65,43,23,29.90,29.68,0,0,0,0.00
2013-4-25,76.5,61.2,47.2,47.0,41.0,33.6,67,49,34,29.80,29.68,0,0,0,0.00
2013-4-26,86.4,62.3,46.6,61.8,45.2,38.1,84,57,34,29.90,29.81,0,0,0,0.00
2013-4-27,83.5,60.2,48.4,54.4,42.5,36.9,74,54,28,29.91,29.85,0,0,0,0.00
2013-4-28,66.2,58.6,51.1,49.5,44.1,36.5,82,61,34,29.91,29.74,0,0,0,0.00
2013-4-29,58.3,52.5,43.2,47.0,38.8,30.6,84,61,37,29.88,29.71,0,0,0,0.00
2013-4-30,54.5,47.1,40.3,40.3,35.3,31.2,78,64,46,30.08,29.88,0,0,0,0.00
2013-5-1,66.1,52.7,37.6,43.4,37.1,31.2,80,58,38,30.15,30.08,0,0,0,0.00
2013-5-2,75.6,62.5,49.9,46.1,37.8,32.6,54,41,26,30.10,29.90,0,0,0,0.00
2013-5-3,74.5,63.3,50.2,48.1,40.0,33.8,57,43,32,29.95,29.79,0,0,0,0.00
2013-5-4,79.2,68.2,54.0,48.0,40.4,34.8,64,39,23,29.79,29.57,0,0,0,0.00
2013-5-5,81.5,71.2,58.0,43.2,40.1,36.6,50,34,23,29.57,29.38,0,0,0,0.00
2013-5-6,77.6,67.5,55.6,53.2,47.9,40.9,64,50,37,29.54,29.42,0,0,0,0.00
2013-5-7,71.6,63.3,53.8,54.3,49.5,45.5,76,61,48,29.68,29.54,0,0,0,0.00
2013-5-8,64.6,58.5,52.9,53.6,49.3,45.5,77,71,66,29.81,29.69,0,0,0,0.00
2013-5-9,73.1,62.6,52.4,57.0,51.5,47.1,83,68,52,29.85,29.74,0,0,0,0.00
2013-5-10,77.9,68.1,57.1,60.6,55.2,49.3,77,64,51,29.85,29.76,0,0,0,0.00
2013-5-11,79.6,69.9,59.2,60.8,55.4,49.9,72,61,46,29.85,29.66,0,0,0,0.00
2013-5-12,69.5,64.9,59.8,58.2,56.3,54.8,84,74,65,29.78,29.72,0,0,0,0.00
2013-5-13,65.7,59.6,53.8,56.9,51.6,43.7,88,76,58,29.88,29.70,0,0,0,0.00
2013-5-14,64.1,56.5,47.9,47.4,43.4,41.8,81,63,47,29.89,29.76,0,0,0,0.00
2013-5-15,57.6,54.7,51.5,50.6,47.2,42.9,82,76,61,29.77,29.68,0,0,0,0.00
2013-5-16,63.2,57.4,54.5,55.5,52.3,49.5,87,83,74,29.69,29.60,0,0,0,0.00
2013-5-17,62.1,55.7,49.9,51.4,49.0,45.8,87,79,65,29.75,29.65,0,0,0,0.00
2013-5-18,56.9,54.0,51.1,51.8,49.6,46.6,89,85,79,29.92,29.76,0,0,0,0.00
2013-5-19,60.8,56.4,53.5,51.5,49.7,46.5,89,79,64,30.06,29.92,0,0,0,0.00
2013-5-20,67.0,58.1,49.1,53.8,47.8,43.8,83,70,53,30.00,29.56,0,0,0,0.00
2013-5-21,59.4,51.6,44.8,48.4,44.8,41.0,87,78,64,29.63,29.48,0,0,0,0.00
2013-5-22,48.4,45.5,43.0,45.7,42.4,39.1,91,89,86,29.63,29.58,0,0,0,0.00
2013-5-23,53.5,48.6,45.4,48.3,45.7,42.9,92,89,82,29.66,29.60,0,0,0,0.00
2013-5-24,56.9,52.1,48.1,51.4,48.1,45.6,91,86,76,29.74,29.62,0,0,0,0.00
2013-5-25,64.4,57.0,50.2,54.7,49.4,46.7,90,77,57,29.73,29.59,0,0,0,0.00
2013-5-26,63.5,58.4,54.4,53.8,51.0,48.6,88,77,65,29.69,29.59,0,0,0,0.00
2013-5-27,62.1,57.3,52.2,58.0,53.2,49.1,92,86,79,29.51,29.41,0,0,0,0.00
2013-5-28,61.2,56.8,53.5,52.6,49.7,47.3,89,78,62,29.59,29.44,0,0,0,0.00
2013-5-29,61.7,56.5,52.4,53.6,49.9,45.9,91,79,64,29.70,29.29,0,0,0,0.00
2013-5-30,64.1,55.7,50.0,54.4,48.2,45.4,86,76,63,29.90,29.71,0,0,0,0.00
2013-5-31,64.1,59.0,52.6,51.5,48.0,46.4,82,68,54,29.98,29.88,0,0,0,0.00
2013-6-1,72.0,62.3,52.7,59.9,51.1,45.5,81,68,54,29.89,29.68,0,0,0,0.00
2013-6-2,67.9,62.5,56.3,53.7,51.0,48.8,77,66,56,29.74,29.69,0,0,0,0.00
2013-6-3,69.5,60.9,52.0,54.7,50.3,45.4,80,69,55,29.78,29.69,0,0,0,0.00
2013-6-4,76.9,66.2,53.3,56.5,51.5,45.5,77,61,43,29.74,29.63,0,0,0,0.00
2013-6-5,78.8,70.8,60.8,59.0,54.4,48.8,65,57,45,29.74,29.64,0,0,0,0.00
2013-6-6,77.8,69.3,59.2,59.9,55.0,46.4,75,61,48,29.71,29.65,0,0,0,0.00
2013-6-7,74.9,66.1,56.9,56.4,49.8,45.8,69,57,42,29.80,29.71,0,0,0,0.00
2013-6-8,73.3,64.0,53.1,52.3,49.1,45.0,75,60,41,29.84,29.71,0,0,0,0.00
2013-6-9,71.1,62.7,54.0,52.6,48.0,44.6,74,59,47,29.76,29.65,0,0,0,0.00
2013-6-10,67.0,58.7,49.9,50.4,45.3,41.2,73,62,52,29.69,29.56,0,0,0,0.00
2013-6-11,63.0,60.6,57.6,46.6,45.4,44.6,63,57,53,29.80,29.75,0,0,0,0.00
2013-6-12,62.6,56.9,54.5,50.6,47.8,44.8,80,72,62,29.83,29.79,0,0,0,0.00
2013-6-13,60.1,55.9,51.5,54.6,50.9,47.1,88,83,77,29.94,29.82,0,0,0,0.00
2013-6-14,63.7,58.1,52.7,52.3,50.4,48.1,85,76,65,29.94,29.65,0,0,0,0.00
2013-6-15,79.0,72.0,57.8,61.5,55.5,49.9,75,57,48,29.66,29.56,0,0,0,0.00
2013-6-16,70.2,66.5,59.6,57.4,55.5,52.4,77,68,62,29.75,29.72,0,0,0,0.00
2013-6-17,73.4,65.3,55.6,55.9,52.2,49.1,80,64,48,29.76,29.59,0,0,0,0.00
2013-6-18,72.4,62.6,56.5,52.8,49.5,46.4,77,63,48,29.67,29.59,0,0,0,0.00
2013-6-19,64.3,59.3,54.4,52.7,48.8,46.2,77,68,58,29.74,29.61,0,0,0,0.00
2013-6-20,66.6,60.0,53.6,52.6,50.2,48.2,84,71,58,29.79,29.70,0,0,0,0.00
2013-6-21,67.3,61.9,56.3,53.3,50.5,47.5,78,67,56,29.83,29.78,0,0,0,0.00
2013-6-22,76.7,66.1,54.2,59.8,51.6,48.5,84,62,40,29.78,29.51,0,0,0,0.00
2013-6-23,68.6,65.1,60.7,60.9,57.2,50.8,86,76,53,29.51,29.31,0,0,0,0.00
2013-6-24,65.5,61.2,57.4,59.1,55.0,52.9,87,80,69,29.38,29.30,0,0,0,0.00
2013-6-25,61.2,59.0,58.1,57.3,55.1,54.2,89,87,84,29.41,29.35,0,0,0,0.00
2013-6-30,95.6,88.6,76.9,68.1,65.4,62.6,62,47,38,29.57,29.49,0,0,0,0.00
2013-7-1,88.6,73.7,67.9,67.9,62.2,59.9,77,68,49,29.63,29.56,0,0,0,0.00
2013-7-2,84.2,79.6,71.1,65.3,60.4,56.1,66,52,43,29.73,29.69,0,0,0,0.00
2013-7-3,81.7,69.9,60.7,56.1,52.2,46.6,72,55,35,29.80,29.69,0,0,0,0.00
2013-7-4,74.9,64.7,54.7,55.9,50.8,46.7,77,61,49,29.81,29.70,0,0,0,0.00
2013-7-5,72.2,62.8,55.8,55.9,51.3,47.3,75,67,56,29.73,29.61,0,0,0,0.00
2013-7-6,74.7,70.4,59.6,59.0,56.7,52.7,78,62,55,29.63,29.52,0,0,0,0.00
2013-7-7,76.3,66.2,56.9,60.9,55.7,51.1,82,69,58,29.64,29.54,0,0,0,0.00
2013-7-8,78.8,67.0,56.2,59.2,54.6,50.0,80,66,49,29.75,29.64,0,0,0,0.00
2013-7-9,85.7,81.1,72.0,63.7,60.9,56.0,69,51,44,29.74,29.64,0,0,0,0.00
2013-7-10,76.9,72.0,65.9,56.3,52.8,49.1,55,51,47,29.65,29.60,0,0,0,0.00
2013-7-11,74.9,68.6,57.6,52.5,50.0,47.0,71,52,45,29.75,29.62,0,0,0,0.00
2013-7-12,72.2,62.9,52.2,54.0,49.0,43.7,74,61,51,29.77,29.66,0,0,0,0.00
2013-7-13,77.6,66.5,52.6,54.1,48.1,43.7,74,54,34,29.82,29.69,0,0,0,0.00
2013-7-14,83.3,72.2,59.8,56.4,50.6,46.0,65,48,32,29.75,29.63,0,0,0,0.00
2013-7-15,82.4,78.9,71.8,55.8,51.4,45.2,43,39,35,29.58,29.47,0,0,0,0.00
2013-7-16,88.2,75.0,64.1,59.0,53.6,46.6,64,48,34,29.64,29.44,0,0,0,0.00
2013-7-17,74.9,66.7,61.2,58.2,54.5,51.7,73,65,54,29.83,29.64,0,0,0,0.00
2013-7-18,75.6,71.4,67.5,58.6,57.8,55.9,67,62,55,29.78,29.74,0,0,0,0.00
2013-7-19,79.2,67.7,58.1,62.4,57.0,51.7,81,69,55,29.80,29.66,0,0,0,0.00
2013-7-20,77.6,65.8,58.5,62.9,56.1,51.5,82,72,58,29.74,29.60,0,0,0,0.00
2013-7-21,78.1,66.3,58.0,62.6,56.2,50.8,81,71,58,29.66,29.56,0,0,0,0.00
2013-7-22,78.7,67.7,58.1,60.6,56.6,52.0,81,68,52,29.71,29.60,0,0,0,0.00
2013-7-23,85.0,71.2,60.5,64.7,59.6,55.1,83,68,45,29.71,29.60,0,0,0,0.00
2013-7-24,86.2,73.8,60.3,61.8,57.9,53.1,79,59,38,29.70,29.62,0,0,0,0.00
2013-7-25,86.6,73.7,59.4,60.1,55.1,50.9,74,54,33,29.74,29.67,0,0,0,0.00
2013-7-26,86.9,73.1,59.8,60.3,51.8,44.3,69,49,33,29.81,29.71,0,0,0,0.00
2013-7-27,77.9,67.1,54.7,56.3,50.5,44.5,77,56,44,29.85,29.67,0,0,0,0.00
2013-7-28,72.4,68.0,60.5,55.5,53.3,49.7,71,60,54,29.72,29.64,0,0,0,0.00
2013-7-29,75.1,70.8,61.0,58.4,55.8,51.3,72,59,52,29.68,29.59,0,0,0,0.00
2013-7-30,79.4,68.4,56.9,60.9,56.3,51.4,82,67,51,29.80,29.68,0,0,0,0.00
2013-7-31,77.8,67.6,59.8,61.6,57.3,53.8,81,70,55,29.77,29.66,0,0,0,0.00
2013-8-1,67.0,62.1,58.3,58.1,55.0,52.7,86,77,70,29.76,29.71,0,0,0,0.00
2013-8-2,71.6,64.9,57.6,56.9,54.8,51.8,83,70,58,29.80,29.75,0,0,0,0.00
2013-8-3,78.1,68.2,60.1,61.1,57.4,54.0,81,69,54,29.77,29.64,0,0,0,0.00
2013-8-4,85.5,73.5,61.4,64.9,60.2,54.9,81,64,46,29.68,29.56,0,0,0,0.00
2013-8-5,85.9,74.4,62.3,65.3,59.9,54.9,80,62,43,29.66,29.56,0,0,0,0.00
2013-8-6,87.3,73.8,59.4,61.3,55.3,51.1,76,55,31,29.66,29.55,0,0,0,0.00
2013-8-7,84.6,71.8,61.2,60.7,56.5,53.2,78,60,42,29.69,29.60,0,0,0,0.00
2013-8-8,79.9,68.9,60.8,63.6,57.6,53.3,77,68,56,29.71,29.56,0,0,0,0.00
2013-8-9,77.0,69.3,61.0,60.7,57.4,52.6,76,66,54,29.61,29.52,0,0,0,0.00
2013-8-10,80.3,70.2,61.0,65.4,60.6,56.5,86,72,55,29.69,29.56,0,0,0,0.00
2013-8-11,73.6,66.0,59.8,61.2,57.7,54.2,83,75,65,29.73,29.64,0,0,0,0.00
2013-8-12,76.7,67.6,59.8,60.9,57.1,54.3,84,70,54,29.72,29.66,0,0,0,0.00
2013-8-13,79.6,73.4,68.9,58.6,55.9,53.4,60,55,48,29.61,29.58,0,0,0,0.00
2013-8-14,83.3,71.9,61.0,59.5,55.4,51.0,76,58,35,29.63,29.58,0,0,0,0.00
2013-8-15,79.2,72.2,67.0,65.6,62.1,58.5,80,71,61,29.64,29.59,0,0,0,0.00
2013-8-16,81.7,72.3,65.2,67.5,63.4,58.1,87,74,54,29.70,29.62,0,0,0,0.00
2013-8-17,81.7,70.9,60.7,62.1,57.9,53.9,79,65,48,29.75,29.67,0,0,0,0.00
2013-8-18,80.1,70.0,60.1,61.7,57.7,54.6,83,66,50,29.79,29.70,0,0,0,0.00
2013-8-19,81.7,70.8,61.4,60.3,56.5,53.0,79,62,44,29.78,29.70,0,0,0,0.00
2013-8-20,79.2,67.9,56.7,59.6,53.0,48.8,76,61,42,29.79,29.65,0,0,0,0.00
2013-8-21,85.7,78.2,71.1,57.2,54.2,51.8,51,44,38,29.54,29.51,0,0,0,0.00
2013-8-22,80.6,70.9,63.2,60.7,54.9,50.8,76,57,46,29.56,29.49,0,0,0,0.00
2013-8-23,72.2,66.1,60.7,59.8,57.4,55.4,83,74,62,29.61,29.53,0,0,0,0.00
2013-8-24,74.2,66.6,61.6,61.7,56.9,52.5,85,72,57,29.58,29.51,0,0,0,0.00
2013-8-25,69.5,63.7,58.9,60.1,56.2,51.3,84,77,67,29.60,29.56,0,0,0,0.00
2013-8-26,77.4,67.0,60.7,61.4,57.3,52.6,87,73,45,29.64,29.55,0,0,0,0.00
2013-8-27,79.4,69.7,61.7,64.3,60.5,57.7,89,74,57,29.63,29.46,0,0,0,0.00
2013-8-28,80.3,71.6,62.8,65.9,61.2,57.5,85,70,55,29.57,29.50,0,0,0,0.00
2013-8-29,77.8,70.1,65.5,68.4,63.5,61.0,90,80,63,29.73,29.50,0,0,0,0.00
2013-8-30,79.6,70.6,63.7,64.2,60.7,56.5,87,72,57,29.81,29.70,0,0,0,0.00
2013-8-31,84.4,71.8,59.8,63.6,59.1,55.1,85,66,46,29.71,29.47,0,0,0,0.00
2013-9-1,81.4,71.2,60.7,61.0,56.8,52.9,76,62,42,29.56,29.45,0,0,0,0.00
2013-9-2,79.7,72.1,63.9,62.5,57.4,52.4,76,61,46,29.59,29.53,0,0,0,0.00
2013-9-3,77.6,68.9,61.0,62.1,57.8,54.2,85,69,51,29.66,29.58,0,0,0,0.00
2013-9-4,73.6,67.9,62.8,61.5,58.8,56.0,80,73,65,29.71,29.64,0,0,0,0.00
2013-9-5,67.1,63.5,58.7,61.0,58.8,55.8,90,84,76,29.69,29.62,0,0,0,0.00
2013-9-6,68.8,62.9,58.7,61.9,58.5,55.8,92,86,74,29.79,29.67,0,0,0,0.00
2013-9-7,77.0,66.6,58.7,64.0,59.2,55.4,92,78,59,29.76,29.62,0,0,0,0.00
2013-9-8,80.8,70.7,60.7,65.9,60.2,55.9,86,71,50,29.73,29.64,0,0,0,0.00
2013-9-9,73.6,71.5,69.5,63.4,62.5,61.8,77,73,70,29.59,29.58,0,0,0,0.00
2013-9-10,85.9,73.5,62.5,67.2,62.2,57.9,85,69,49,29.59,29.44,0,0,0,0.00
2013-9-11,91.1,76.4,68.0,67.2,62.1,58.4,74,62,42,29.59,29.48,0,0,0,0.00
2013-9-12,80.3,70.5,62.3,65.0,60.6,54.7,82,71,58,29.66,29.56,0,0,0,0.00
2013-9-13,72.2,65.7,61.0,63.3,59.4,56.3,86,80,72,29.63,29.50,0,0,0,0.00
2013-9-14,74.9,68.3,62.5,65.4,61.6,58.2,87,79,69,29.52,29.37,0,0,0,0.00
2013-9-15,67.7,64.0,60.7,62.0,59.5,56.8,89,85,81,29.54,29.37,0,0,0,0.00
2013-9-16,70.6,62.7,58.9,60.1,57.5,55.0,88,83,69,29.64,29.54,0,0,0,0.00
2013-9-17,66.8,61.4,56.2,57.9,53.6,50.3,89,76,61,29.66,29.52,0,0,0,0.00
2013-9-18,70.9,61.7,55.4,56.4,51.7,48.8,87,71,50,29.75,29.66,0,0,0,0.00
2013-9-19,76.9,64.0,52.2,58.1,51.1,48.1,88,65,41,29.67,29.43,0,0,0,0.00
2013-9-20,72.7,62.3,54.0,57.1,52.3,47.6,81,70,58,29.44,29.31,0,0,0,0.00
2013-9-21,65.3,60.9,57.2,59.1,55.0,52.2,87,81,73,29.43,29.33,0,0,0,0.00
2013-9-22,60.1,57.4,55.4,57.1,53.9,51.3,90,88,84,29.52,29.34,0,0,0,0.00
2013-9-23,62.5,57.8,54.4,57.1,54.1,51.5,91,88,81,29.66,29.51,0,0,0,0.00
2013-9-24,60.1,54.7,52.2,54.8,51.5,48.9,92,89,81,29.64,29.51,0,0,0,0.00
2013-9-25,59.8,53.5,49.9,52.4,49.1,46.1,92,85,75,29.69,29.51,0,0,0,0.00
2013-9-26,56.0,53.8,50.0,48.7,48.0,45.9,87,81,77,29.82,29.69,0,0,0,0.00
2013-9-27,55.6,54.7,51.5,52.7,51.3,47.1,92,89,85,29.82,29.56,0,0,0,0.00
2013-9-28,61.9,57.6,52.9,58.4,55.0,50.6,93,91,88,29.57,29.15,0,0,0,0.00
2013-9-29,56.2,53.9,52.4,54.2,51.6,50.0,93,92,91,29.34,29.02,0,0,0,0.00
2013-9-30,56.9,54.0,51.1,53.4,50.8,48.2,92,89,84,29.66,29.54,0,0,0,0.00
2013-10-1,57.8,51.9,47.9,53.1,48.4,44.4,92,88,78,29.85,29.62,0,0,0,0.00
2013-10-2,55.3,49.0,45.4,50.0,45.8,42.8,91,89,82,29.84,29.73,0,0,0,0.00
2013-10-3,56.2,49.3,45.7,50.8,46.1,43.6,94,89,79,30.08,29.83,0,0,0,0.00
2013-10-4,63.4,52.8,45.4,53.1,47.8,42.8,93,84,68,30.10,29.98,0,0,0,0.00
2013-10-5,67.7,56.5,46.4,52.5,48.1,43.1,89,74,57,29.99,29.79,0,0,0,0.00
2013-10-6,71.5,58.9,47.7,56.7,48.3,43.6,88,70,47,29.79,29.62,0,0,0,0.00
2013-10-7,62.1,56.7,52.9,50.1,46.8,45.4,77,70,64,29.79,29.72,0,0,0,0.00
2013-10-8,56.0,52.1,45.4,51.1,46.2,41.1,87,80,73,29.79,29.63,0,0,0,0.00
2013-10-9,58.0,49.6,43.7,48.6,44.4,40.8,90,83,69,29.76,29.62,0,0,0,0.00
2013-10-10,59.8,52.3,47.7,51.8,47.7,43.9,90,84,72,29.74,29.60,0,0,0,0.00
2013-10-11,58.0,54.7,51.3,50.4,48.1,45.2,89,78,72,29.79,29.74,0,0,0,0.00
2013-10-12,56.5,51.6,47.9,50.4,46.4,43.4,88,83,76,29.82,29.71,0,0,0,0.00
2013-10-13,60.1,54.7,47.7,51.1,47.3,44.4,88,76,69,29.95,29.88,0,0,0,0.00
2013-10-14,63.7,55.6,46.3,51.0,46.6,43.6,90,72,62,30.01,29.94,0,0,0,0.00
2013-10-15,65.9,55.0,47.2,49.3,43.7,41.1,81,67,43,29.98,29.78,0,0,0,0.00
2013-10-16,62.5,53.5,46.1,50.1,45.9,41.8,88,76,62,29.81,29.75,0,0,0,0.00
2013-10-17,61.4,53.3,47.9,51.0,47.3,44.6,90,81,66,29.88,29.79,0,0,0,0.00
2013-10-18,67.5,57.0,49.1,50.2,46.2,43.7,84,68,52,29.82,29.72,0,0,0,0.00
2013-10-19,64.3,54.0,46.4,50.4,46.4,42.8,91,76,59,29.80,29.74,0,0,0,0.00
2013-10-20,59.2,51.2,46.4,51.1,46.8,43.9,92,85,73,29.80,29.71,0,0,0,0.00
2013-10-21,67.7,62.2,48.6,54.3,51.4,46.3,92,68,61,29.74,29.63,0,0,0,0.00
2013-10-22,70.2,58.3,47.3,54.3,49.9,44.9,92,75,56,29.69,29.60,0,0,0,0.00
2013-10-23,68.8,58.0,49.0,55.0,50.2,45.3,89,76,59,29.66,29.59,0,0,0,0.00
2013-10-24,65.2,55.1,48.6,54.7,49.5,45.9,91,82,67,29.74,29.63,0,0,0,0.00
2013-10-25,55.8,52.5,49.3,50.3,48.5,46.1,90,86,82,29.91,29.74,0,0,0,0.00
2013-10-26,56.2,51.8,48.4,49.7,47.5,43.9,90,86,78,29.93,29.81,0,0,0,0.00
2013-10-27,55.3,50.7,47.9,49.9,45.9,44.2,91,84,75,29.82,29.48,0,0,0,0.00
2013-10-28,57.1,52.7,44.5,42.0,32.9,29.7,75,48,37,29.57,29.47,0,0,0,0.00
2013-10-29,56.5,46.5,38.2,41.1,35.7,32.3,85,67,50,29.70,29.57,0,0,0,0.00
2013-10-30,54.4,52.6,50.8,43.8,43.0,42.1,77,70,64,29.83,29.79,0,0,0,0.00
2013-10-31,58.3,53.9,50.4,50.8,47.5,43.7,84,79,75,29.92,29.79,0,0,0,0.00
2013-11-1,59.4,55.8,51.1,52.0,50.3,48.2,91,82,73,29.90,29.56,0,0,0,0.00
2013-11-2,55.6,51.2,44.1,50.5,45.2,38.7,92,81,62,29.70,29.37,0,0,0,0.00
2013-11-3,51.1,46.1,42.1,45.1,41.4,38.5,88,84,75,29.79,29.69,0,0,0,0.00
2013-11-4,49.1,47.1,45.0,46.2,44.2,41.9,91,90,88,29.82,29.75,0,0,0,0.00
2013-11-5,53.1,51.0,47.7,50.8,48.6,45.3,92,92,90,29.89,29.72,0,0,0,0.00
2013-11-6,52.9,50.8,49.3,51.2,48.7,46.8,94,92,91,29.93,29.72,0,0,0,0.00
2013-11-7,55.1,51.0,48.4,53.6,48.1,44.7,95,90,83,29.76,29.51,0,0,0,0.00
2013-11-8,52.2,48.5,45.9,48.4,45.5,43.5,93,89,86,29.83,29.76,0,0,0,0.00
2013-11-9,50.0,47.0,43.6,46.1,44.0,41.1,93,89,85,29.76,29.68,0,0,0,0.00
2013-11-10,56.5,52.4,47.2,49.9,47.4,44.8,92,83,78,29.73,29.69,0,0,0,0.00
2013-11-11,56.5,53.1,48.4,44.9,42.7,41.9,87,68,61,29.71,29.66,0,0,0,0.00
2013-11-12,56.2,53.4,49.0,53.3,50.7,45.5,92,90,88,30.04,29.84,0,0,0,0.00
2013-11-13,49.1,46.7,45.0,45.7,44.2,42.4,93,91,88,30.02,29.93,0,0,0,0.00
2013-11-14,50.9,47.5,44.8,47.4,44.9,42.4,93,91,86,29.93,29.74,0,0,0,0.00
2013-11-15,47.5,45.1,42.7,44.2,42.7,40.5,93,91,88,29.75,29.17,0,0,0,0.00
2013-11-16,49.0,46.7,43.6,45.2,42.7,40.6,92,86,81,29.48,29.20,0,0,0,0.00
2013-11-17,53.1,49.4,45.5,47.6,44.8,42.1,90,84,79,29.63,29.49,0,0,0,0.00
2013-11-23,45.0,42.6,41.2,22.0,20.4,19.6,44,41,38,29.84,29.81,0,0,0,0.00
2013-11-24,51.5,43.2,38.5,27.9,23.5,19.4,54,46,38,29.92,29.79,0,0,0,0.00
2013-11-25,50.8,42.9,37.8,27.8,25.6,23.9,59,51,39,29.98,29.92,0,0,0,0.00
2013-11-26,48.6,44.4,39.1,30.8,28.4,25.8,61,54,50,29.93,29.71,0,0,0,0.00
2013-11-27,50.9,44.8,40.7,31.4,29.4,28.2,62,55,46,29.71,29.61,0,0,0,0.00
2013-11-28,51.7,45.1,40.7,35.0,31.8,29.0,67,60,52,29.85,29.67,0,0,0,0.00
2013-11-29,45.2,40.7,35.1,37.7,33.5,28.4,81,75,67,30.01,29.85,0,0,0,0.00
2013-11-30,50.0,47.9,43.0,43.9,42.0,38.8,85,80,76,30.03,29.87,0,0,0,0.00
2013-12-1,55.6,53.7,51.1,52.0,50.7,48.5,92,90,87,29.77,29.56,0,0,0,0.00
2013-12-2,51.3,44.3,37.3,48.7,39.2,32.7,91,83,66,29.69,29.55,0,0,0,0.00
2013-12-3,37.4,33.6,31.7,22.9,22.0,21.3,66,62,53,29.92,29.86,0,0,0,0.00
2013-12-4,36.2,31.2,27.4,24.0,20.1,15.0,83,64,47,29.97,29.91,0,0,0,0.00
2013-12-5,32.4,28.2,25.0,17.3,16.0,14.4,68,60,50,29.94,29.80,0,0,0,0.00
2013-12-6,28.8,26.6,24.3,18.7,14.8,10.2,79,61,52,29.79,29.61,0,0,0,0.00
2013-12-7,28.1,23.7,19.6,10.3,6.8,3.7,58,48,39,30.06,29.74,0,0,0,0.00
2013-12-8,28.8,22.0,16.6,15.9,10.7,6.1,68,61,55,30.22,30.05,0,0,0,0.00
2013-12-9,29.9,24.5,17.3,21.0,16.1,10.1,77,70,66,30.24,30.16,0,0,0,0.00
2013-12-10,35.8,31.2,27.9,27.4,23.9,20.6,81,74,70,30.18,30.03,0,0,0,0.00
2013-12-11,40.5,32.0,27.7,32.9,27.1,23.2,89,82,73,30.03,29.84,0,0,0,0.00
2013-12-12,38.9,33.2,25.0,36.2,29.8,20.9,90,87,83,29.86,29.79,0,0,0,0.00
2013-12-13,48.6,43.9,38.9,44.7,41.1,35.9,91,90,86,30.08,29.86,0,0,0,0.00
2013-12-14,43.2,41.0,39.8,40.5,38.6,37.4,92,91,90,30.11,30.01,0,0,0,0.00
2013-12-15,46.8,42.3,38.9,43.9,39.8,36.5,92,91,88,30.13,30.06,0,0,0,0.00
2013-12-16,43.4,42.1,40.7,41.0,40.0,38.7,93,92,91,30.12,29.89,0,0,0,0.00
2013-12-17,41.2,39.1,37.8,39.3,37.0,35.6,93,92,91,29.89,29.82,0,0,0,0.00
2013-12-18,42.3,38.9,34.2,39.9,36.5,31.1,93,91,87,29.83,29.69,0,0,0,0.00
2013-12-19,39.2,35.1,32.8,35.4,32.1,30.2,92,89,85,29.97,29.76,0,0,0,0.00
2013-12-20,45.2,37.8,33.5,43.3,35.4,30.8,93,91,89,29.87,29.52,0,0,0,0.00
2013-12-21,51.7,47.2,45.2,48.7,44.9,43.3,94,92,86,29.87,29.58,0,0,0,0.00
2013-12-22,52.6,48.7,46.1,49.4,46.1,43.7,92,91,89,30.00,29.87,0,0,0,0.00
2013-12-23,50.8,47.0,39.2,48.4,44.5,36.5,93,91,87,30.18,29.94,0,0,0,0.00
2013-12-24,41.2,38.1,34.0,39.3,36.2,31.9,94,93,91,30.25,30.13,0,0,0,0.00
2013-12-25,42.8,38.3,35.8,38.7,35.7,33.9,93,91,85,30.12,30.03,0,0,0,0.00
2013-12-26,41.0,36.1,33.1,37.5,33.5,31.1,93,91,86,30.03,29.88,0,0,0,0.00
2013-12-27,37.8,35.8,33.8,35.4,33.6,32.0,93,92,91,30.04,29.84,0,0,0,0.00
2013-12-28,45.5,40.4,35.3,42.1,37.4,33.3,93,89,83,30.14,30.03,0,0,0,0.00
2013-12-29,41.0,39.5,38.3,37.5,36.5,35.6,91,89,87,29.98,29.94,0,0,0,0.00
2013-12-30,41.9,39.5,37.8,39.2,37.0,35.4,93,91,89,29.93,29.83,0,0,0,0.00
2014-1-1,46.4,43.0,38.7,42.9,40.2,36.0,94,90,87,30.00,29.90,0,0,0,0.00
2014-1-2,43.9,40.6,37.1,41.5,38.4,34.7,94,92,90,29.90,29.68,0,0,0,0.00